Racine, WI

5:46 AM CST on February 28, 2017 (GMT -0600)
Batten

Weather History for KRAC - October, 2011

Change the Weather History Date:

Friday, October 7, 2011

  Actual Average Record
Temperature  
Mean Temperature 62 °F -  
Max Temperature 73 °F 62 °F 84 °F (2007)
Min Temperature 52 °F 43 °F 28 °F (2001)
Degree Days  
Heating Degree Days 4    
Growing Degree Days 12 (Base 50)    
Moisture  
Dew Point 55 °F    
Average Humidity 77    
Maximum Humidity 100    
Minimum Humidity 57    
Precipitation  
Precipitation 0.01 in - - ()
Sea Level Pressure  
Sea Level Pressure 30.27 in    
Wind  
Wind Speed 6 mph (South)    
Max Wind Speed 15 mph    
Max Gust Speed 21 mph    
Visibility 8 miles    
Events      
Averages and records for this station are not official NWS values.
T = Trace of Precipitation, MM = Missing Value Source: NWS Daily Summary

Daily Weather History Graph

Daily Weather History Graph

Search for Another Location

Airport or City:

Trip Planner

Search our weather history database for the weather conditions in past years. The results will help you decide how hot, cold, wet, or windy it might be!

Date:

Astronomy

Oct. 07, 2011 Rise Set
Actual Time 6:54 AM CDT 6:22 PM CDT
Civil Twilight 6:26 AM CDT 6:50 PM CDT
Nautical Twilight 5:53 AM CDT 7:23 PM CDT
Astronomical Twilight 5:20 AM CDT 7:56 PM CDT
Moon 4:09 PM CDT (10/7) 2:38 AM CDT (10/7)
Length of Visible Light 12h 24m
Length of Day
11h 27m
Waxing Gibbous, 83% of the Moon is Illuminated
Oct 7
Waxing Gibbous
Oct 11
Full
Oct 19
Last Quarter
Oct 26
New
Nov 2
First Quarter

Hourly Weather History & Observations

Time (CDT) Temp. Dew Point Humidity Pressure Visibility Wind Dir Wind Speed Gust Speed Precip Events Conditions
12:53 AM 60.1 °F 55.0 °F 83% 30.24 in 9.0 mi South 4.6 mph - N/A   Clear
1:53 AM 57.9 °F 55.0 °F 90% 30.24 in 8.0 mi South 3.5 mph - N/A   Clear
2:53 AM 57.0 °F 55.0 °F 93% 30.24 in 6.0 mi Calm Calm - N/A   Clear
3:53 AM 55.0 °F 54.0 °F 96% 30.26 in 5.0 mi South 3.5 mph - N/A   Clear
4:53 AM 52.0 °F 52.0 °F 100% 30.28 in 3.0 mi South 3.5 mph - N/A   Clear
5:53 AM 54.0 °F 54.0 °F 100% 30.30 in 4.0 mi South 3.5 mph - N/A   Clear
6:53 AM 54.0 °F 53.1 °F 97% 30.31 in 3.0 mi South 4.6 mph - N/A   Clear
7:02 AM 53.6 °F 53.6 °F 100% 30.31 in 2.5 mi South 4.6 mph - N/A   Clear
7:21 AM 57.2 °F 55.4 °F 94% 30.31 in 3.0 mi South 4.6 mph - N/A   Clear
7:53 AM 57.9 °F 55.9 °F 93% 30.32 in 3.0 mi South 3.5 mph - 0.01 in   Clear
8:53 AM 64.0 °F 55.0 °F 73% 30.32 in 9.0 mi South 5.8 mph - N/A   Clear
9:53 AM 68.0 °F 55.0 °F 63% 30.32 in 10.0 mi South 5.8 mph - N/A   Clear
10:53 AM 70.0 °F 55.9 °F 61% 30.31 in 10.0 mi SSE 6.9 mph - N/A   Clear
12:53 PM 71.1 °F 55.0 °F 57% 30.27 in 9.0 mi SSE 11.5 mph - N/A   Clear
1:53 PM 71.1 °F 55.9 °F 59% 30.26 in 8.0 mi South 11.5 mph - N/A   Clear
2:53 PM 71.1 °F 55.0 °F 57% 30.25 in 9.0 mi SSE 15.0 mph 20.7 mph N/A   Clear
4:53 PM 71.1 °F 55.9 °F 59% 30.23 in 10.0 mi South 9.2 mph - N/A   Clear
5:53 PM 69.1 °F 55.0 °F 61% 30.23 in 10.0 mi SSE 10.4 mph - N/A   Clear
6:53 PM 66.9 °F 55.0 °F 66% 30.23 in 10.0 mi South 8.1 mph - N/A   Clear
7:53 PM 66.0 °F 55.0 °F 68% 30.23 in 10.0 mi South 9.2 mph - N/A   Clear
8:53 PM 66.9 °F 55.0 °F 66% 30.23 in 10.0 mi South 9.2 mph - N/A   Clear
9:53 PM 66.9 °F 55.0 °F 66% 30.24 in 10.0 mi South 10.4 mph - N/A   Clear
10:53 PM 64.9 °F 55.0 °F 70% 30.25 in 10.0 mi South 6.9 mph - N/A   Clear
11:53 PM 64.9 °F 54.0 °F 68% 30.24 in 10.0 mi South 8.1 mph - N/A   Clear